This demonstration page uses our WeatherBlox Daily Observations layout. Learn more.

Left ArrowRight Arrow

Hourly Observations for September 29, 2015

Temp ( °F °C ) Dew Point ( °F °C ) Humidity (%) Winds ( mph kmh ) Pressure ( in mb ) Visibility ( mi km ) Precip ( " mm )
12:53 am 00:53 Mostly Cloudy 64 17.8 58 14.4 81 81 N 13 20 30.00 1016 10 16 0.00 0.00
1:37 am 01:37 Mostly Cloudy 64 17.8 58 14.4 81 81 NNE 17 28 30.03 1017 10 16 0.00 0.00
1:53 am 01:53 Mostly Cloudy 64 17.8 56 13.3 75 75 NNE 17 28 30.02 1017 10 16 0.00 0.00
2:53 am 02:53 Mostly Cloudy 58 14.4 53 11.7 84 84 NE 18 30 30.04 1017 10 16 0.00 0.00
3:53 am 03:53 Mostly Cloudy with Light Rain 58 14.4 53 11.7 84 84 NE 17 28 30.04 1017 10 16 0.00 0.03
4:00 am 04:00 Mostly Cloudy with Light Rain 57 13.9 53 11.7 87 87 NE 16 26 30.09 1019 10 16 0.00 0.03
4:14 am 04:14 Cloudy with Light Rain 57 13.9 54 12.2 90 90 NE 13 20 30.06 1018 10 16 0.00 0.03
4:53 am 04:53 Cloudy 57 13.9 55 12.8 93 93 NNE 15 24 30.06 1018 10 16 0.00 0.03
5:44 am 05:44 Cloudy 57 14 54 12 88 88 NE 10 17 30.09 1019 10 16 0.00 0.00
5:53 am 05:53 Cloudy 56 13.3 53 11.7 90 90 ENE 12 19 30.04 1017 10 16 0.00 0.00
6:26 am 06:26 Cloudy with Light Rain 55 13 54 12 94 94 NE 8 13 30.09 1019 6 10 0.00 0.00
6:53 am 06:53 Cloudy with Light Rain 55 12.8 53 11.7 93 93 NNE 13 20 30.09 1019 7 11 0.05 1.27
7:53 am 07:53 Cloudy 54 12.2 52 11.1 93 93 NE 17 28 30.10 1019 10 16 0.02 0.51
8:53 am 08:53 Cloudy 55 12.8 52 11.1 90 90 NE 13 20 30.12 1020 10 16 0.00 0.00
9:53 am 09:53 Cloudy 56 13.3 52 11.1 87 87 ENE 15 24 30.15 1021 10 16 0.00 0.00
10:53 am 10:53 Mostly Cloudy 60 15.6 53 11.7 78 78 NE 13 20 30.16 1021 10 16 0.00 0.00
11:01 am 11:01 Partly Cloudy 61 16.1 53 11.7 75 75 NE 13 20 30.12 1020 10 16 0.00 0.00
11:53 am 11:53 Partly Cloudy 64 17.8 53 11.7 68 68 NE 12 19 30.16 1021 10 16 0.00 0.00
12:53 pm 12:53 Mostly Sunny 66 18.9 53 11.7 63 63 NE 14 22 30.16 1021 10 16 0.00 0.00
1:53 pm 13:53 Sunny 65 18.3 52 11.1 63 63 NE 9 15 30.14 1021 10 16 0.00 0.00
2:53 pm 14:53 Mostly Sunny 68 20 52 11.1 57 57 ENE 12 19 30.15 1021 10 16 0.00 0.00
3:53 pm 15:53 Mostly Sunny 69 20.6 52 11.1 55 55 ENE 10 17 30.13 1020 10 16 0.00 0.00
4:53 pm 16:53 Mostly Sunny 70 21.1 51 10.6 51 51 ENE 9 15 30.12 1020 10 16 0.00 0.00
5:53 pm 17:53 Sunny 69 20.6 50 10 51 51 E 10 17 30.12 1020 10 16 0.00 0.00
6:53 pm 18:53 Sunny 65 18.3 50 10 59 59 ENE 8 13 30.13 1020 10 16 0.00 0.00
7:53 pm 19:53 Clear 61 16.1 49 9.4 65 65 ENE 6 9 30.14 1021 10 16 0.00 0.00
8:53 pm 20:53 Clear 60 15.6 48 8.9 65 65 E 8 13 30.14 1021 10 16 0.00 0.00
9:53 pm 21:53 Clear 59 15 47 8.3 64 64 E 8 13 30.16 1021 10 16 0.00 0.00
10:53 pm 22:53 Clear 58 14.4 45 7.2 62 62 E 6 9 30.17 1022 10 16 0.00 0.00
11:53 pm 23:53 Mostly Clear 59 15 42 5.6 54 54 ESE 9 15 30.17 1022 10 16 0.00 0.00

Powered by AerisWeather